sat.trackr.live / text

‹ back to catalog

STARLINK-6377

NORAD 57341 · 2023-099P

PAYLOAD ACTIVE UNKNOWN

§ Identity

Operator
Country
US
Launch date
2023-07-16
Launch site
AFETR
Launch vehicle
Mass (kg)
RCS (m²)

Purposes: comms

External: N2YO · Heavens-Above · Gunter

§ Orbital elements

Epoch: 2026-09-20T07:44:47.380704Z

Period
94.27 min
Inclination
43.0039°
Eccentricity
0.0001470
Mean motion
15.27578612 rev/d
Perigee alt
482.0 km
Apogee alt
484.1 km
Semi-major
6,861.2 km
B*
5.6643e-5
RAAN
236.5750°
Arg perigee
275.9178°
Mean anomaly
84.1506°
Rev number
17,580

§ Raw data

STARLINK-63771 57341U 23099P   26263.32277061  .00001297  00000+0  56643-4 0  99962 57341  43.0039 236.5750 0001470 275.9178  84.1506 15.27578612175809

JSON: /api/v1/satellites/57341 · /tle

For live sub-satellite position, see the globe view (requires WebGL).

§ Visibility from observer

Set your observer location to see the next 7 days of passes ≥ 10°. The values pass through the URL so the page stays shareable.

No JS? Fill the form by hand. The geolocation button needs JavaScript.